TimeEDT,TemperatureF,Dew PointF,Humidity,Sea Level PressureIn,VisibilityMPH,Wind Direction,Wind SpeedMPH,Gust SpeedMPH,PrecipitationIn,Events,Conditions,WindDirDegrees,DateUTC
12:54 AM,66.9,62.1,84,30.14,10.0,Calm,Calm,-,N/A,,Overcast,0,2012-09-27 04:54:00
1:54 AM,64.9,62.1,90,30.12,10.0,North,4.6,-,N/A,,Clear,360,2012-09-27 05:54:00
2:54 AM,64.0,62.1,93,30.12,10.0,Calm,Calm,-,N/A,,Clear,0,2012-09-27 06:54:00
3:54 AM,63.0,62.1,97,30.12,8.0,SSE,4.6,-,N/A,,Mostly Cloudy,160,2012-09-27 07:54:00
4:54 AM,63.0,62.1,97,30.12,8.0,SSE,3.5,-,0.00,Rain,Light Rain,150,2012-09-27 08:54:00
5:54 AM,63.0,62.1,97,30.13,7.0,SSE,3.5,-,0.00,Rain,Light Rain,150,2012-09-27 09:54:00
6:54 AM,63.0,62.1,97,30.13,8.0,SSE,6.9,-,0.01,,Overcast,160,2012-09-27 10:54:00
7:54 AM,64.0,62.1,93,30.14,10.0,South,4.6,-,N/A,,Overcast,180,2012-09-27 11:54:00
8:54 AM,64.9,62.1,90,30.14,10.0,SSW,4.6,-,N/A,,Overcast,200,2012-09-27 12:54:00
9:54 AM,66.0,62.1,87,30.15,10.0,SW,9.2,-,N/A,,Mostly Cloudy,230,2012-09-27 13:54:00
10:54 AM,68.0,63.0,84,30.15,10.0,SW,8.1,-,N/A,,Partly Cloudy,230,2012-09-27 14:54:00
11:54 AM,68.0,63.0,84,30.14,10.0,WSW,9.2,-,0.00,,Overcast,240,2012-09-27 15:54:00
12:54 PM,70.0,64.0,81,30.15,10.0,West,10.4,17.3,N/A,,Mostly Cloudy,280,2012-09-27 16:54:00
1:54 PM,72.0,64.9,78,30.13,10.0,West,10.4,-,N/A,,Mostly Cloudy,270,2012-09-27 17:54:00
2:54 PM,73.0,64.0,73,30.11,10.0,West,6.9,-,N/A,,Mostly Cloudy,280,2012-09-27 18:54:00
2:56 PM,73.4,64.4,73,30.13,10.0,West,8.1,-,N/A,,Mostly Cloudy,270,2012-09-27 18:56:00
3:54 PM,73.0,64.9,76,30.11,10.0,West,8.1,-,N/A,,Mostly Cloudy,260,2012-09-27 19:54:00
4:54 PM,75.0,64.9,71,30.10,10.0,NNW,3.5,-,N/A,,Mostly Cloudy,330,2012-09-27 20:54:00
5:14 PM,73.4,64.4,73,30.12,10.0,Variable,3.5,-,N/A,,Mostly Cloudy,0,2012-09-27 21:14:00
5:54 PM,73.0,64.0,73,30.10,10.0,West,6.9,-,N/A,,Mostly Cloudy,260,2012-09-27 21:54:00
6:54 PM,72.0,64.9,78,30.10,10.0,Calm,Calm,-,N/A,,Mostly Cloudy,0,2012-09-27 22:54:00
7:01 PM,71.6,64.4,78,30.12,10.0,Calm,Calm,-,N/A,,Overcast,0,2012-09-27 23:01:00
7:54 PM,69.1,64.9,87,30.09,10.0,South,3.5,-,N/A,,Overcast,170,2012-09-27 23:54:00
8:54 PM,68.0,64.9,90,30.10,10.0,Calm,Calm,-,0.00,,Scattered Clouds,0,2012-09-28 00:54:00
9:54 PM,66.9,64.9,93,30.12,10.0,Calm,Calm,-,N/A,,Scattered Clouds,0,2012-09-28 01:54:00
10:30 PM,66.2,66.2,100,30.14,9.0,Calm,Calm,-,0.00,Rain,Light Rain,0,2012-09-28 02:30:00
10:54 PM,66.9,66.0,97,30.11,7.0,Calm,Calm,-,0.02,,Overcast,0,2012-09-28 02:54:00
11:06 PM,66.2,66.2,100,30.14,2.0,WSW,5.8,-,0.05,Rain,Heavy Rain,240,2012-09-28 03:06:00
11:13 PM,66.2,66.2,100,30.13,1.2,Calm,Calm,-,0.17,Rain,Rain,0,2012-09-28 03:13:00
11:19 PM,66.2,66.2,100,30.13,4.0,Calm,Calm,-,0.17,Rain,Light Rain,0,2012-09-28 03:19:00
11:29 PM,66.2,66.2,100,30.13,6.0,Calm,Calm,-,0.17,,Overcast,0,2012-09-28 03:29:00
11:54 PM,66.0,66.0,100,30.12,2.5,SSE,3.5,-,0.20,Rain,Rain,160,2012-09-28 03:54:00